AEROCUBE 6B

Last updated on Thu Sep 24 2026 00:04:05 GMT+0000 (Coordinated Universal Time)

1 40046U 14033AN 26266.41941940 .00004434 00000+0 35055-3 0 9994 2 40046 97.7367 72.4277 0040904 30.6340 329.7260 15.00514726661482
UTC large
Height (km)
Speed (km/s)
/
Latitude / Longitude
Inclination (degrees)
Orbital Period (minutes)
Azimuth
Elevation
Range (km)
Doppler Factor

Next 0 passes for location: London (51.5072 / 0.1276)

No passes found over London.
AEROCUBE 6B